Location: Chavannes
(47.1090°N, 0.2226°W)
Time: 14:36:28
(UTC+00:00)

CZ-2C R/B - Pass Details

Date: 16 October 2021
Orbit: 784 x 871 km, 98.2° (Epoch: 06 December)

Event Time Altitude Azimuth Distance (km) Brightness Sun altitude
Rises 17:47:50 0° 18° (NNE) 3,472 5.6 -6.9°
Reaches altitude 10° 17:50:22 10° 25° (NNE) 2,529 4.9 -7.4°
Maximum altitude 17:55:45 45° 97° (E) 1,168 3.0 -8.3°
Drops below altitude 10° 18:01:03 10° 170° (S) 2,487 5.1 -9.2°
Sets 18:03:30 0° 177° (S) 3,409 5.9 -9.6°
